TimeCDT,TemperatureF,Dew PointF,Humidity,Sea Level PressureIn,VisibilityMPH,Wind Direction,Wind SpeedMPH,Gust SpeedMPH,PrecipitationIn,Events,Conditions,WindDirDegrees,DateUTC
12:52 AM,70.0,52.0,53,29.94,10.0,SSW,11.5,-,N/A,,Clear,200,2012-09-11 05:52:00
1:52 AM,66.9,51.1,57,29.94,10.0,SW,8.1,-,N/A,,Clear,220,2012-09-11 06:52:00
2:52 AM,66.0,51.1,59,29.93,10.0,SW,8.1,-,N/A,,Clear,230,2012-09-11 07:52:00
3:52 AM,68.0,50.0,52,29.92,10.0,SSW,9.2,-,N/A,,Clear,210,2012-09-11 08:52:00
4:52 AM,68.0,50.0,52,29.93,10.0,SSW,10.4,-,N/A,,Clear,210,2012-09-11 09:52:00
5:52 AM,64.9,51.1,61,29.94,10.0,SSW,6.9,-,N/A,,Clear,210,2012-09-11 10:52:00
6:52 AM,63.0,50.0,63,29.94,10.0,South,3.5,-,N/A,,Clear,190,2012-09-11 11:52:00
7:52 AM,62.1,52.0,70,29.96,10.0,Calm,Calm,-,N/A,,Clear,0,2012-09-11 12:52:00
8:52 AM,72.0,51.1,48,29.96,10.0,SSW,8.1,-,N/A,,Clear,200,2012-09-11 13:52:00
9:52 AM,78.1,51.1,39,29.96,10.0,SSW,15.0,-,N/A,,Clear,200,2012-09-11 14:52:00
10:52 AM,82.9,52.0,34,29.95,10.0,SSW,15.0,20.7,N/A,,Clear,210,2012-09-11 15:52:00
11:52 AM,86.0,50.0,29,29.94,10.0,SSW,18.4,27.6,N/A,,Clear,200,2012-09-11 16:52:00
12:52 PM,89.1,50.0,26,29.92,10.0,SSW,19.6,28.8,N/A,,Clear,200,2012-09-11 17:52:00
1:52 PM,91.0,48.9,23,29.90,10.0,SSW,23.0,29.9,N/A,,Clear,210,2012-09-11 18:52:00
2:52 PM,90.0,48.0,24,29.88,10.0,South,20.7,31.1,N/A,,Clear,180,2012-09-11 19:52:00
3:52 PM,91.0,46.0,21,29.86,10.0,South,19.6,32.2,N/A,,Clear,180,2012-09-11 20:52:00
4:52 PM,91.0,46.0,21,29.85,10.0,South,19.6,32.2,N/A,,Clear,180,2012-09-11 21:52:00
5:52 PM,90.0,46.9,23,29.85,10.0,South,13.8,25.3,N/A,,Clear,180,2012-09-11 22:52:00
6:52 PM,87.1,46.0,24,29.85,10.0,South,15.0,23.0,N/A,,Clear,170,2012-09-11 23:52:00
7:52 PM,80.1,48.0,32,29.86,10.0,SSE,6.9,-,N/A,,Clear,160,2012-09-12 00:52:00
8:52 PM,75.9,48.9,38,29.88,10.0,SSE,5.8,-,N/A,,Clear,150,2012-09-12 01:52:00
9:52 PM,75.9,48.9,38,29.89,10.0,SSE,9.2,-,N/A,,Clear,150,2012-09-12 02:52:00
10:52 PM,77.0,51.1,40,29.89,10.0,South,12.7,-,N/A,,Clear,170,2012-09-12 03:52:00
11:52 PM,77.0,50.0,39,29.89,10.0,South,15.0,-,N/A,,Clear,170,2012-09-12 04:52:00